Location: Bosmont
(49.7318°N, 3.8587°E)
Time: 07:18:32
(UTC+00:00)

Lacrosse 5 rocket - Pass Details

Date: 08 February 2023
Orbit: 454 x 613 km, 57.0° (Epoch: 24 March)

Event Time Altitude Azimuth Distance (km) Brightness Sun altitude
Rises 18:37:12 0° 290° (WNW) 2,487 5.9 -17.5°
Reaches altitude 10° 18:40:27 10° 258° (WSW) 1,627 5.0 -18.0°
Maximum altitude 18:41:53 12° 234° (SW) 1,519 4.4 -18.2°
Drops below altitude 10° 18:43:19 10° 211° (SSW) 1,647 4.2 -18.5°
Sets 18:46:40 0° 180° (S) 2,558 4.7 -19.0°
